Location: Corcelles
(46.1547°N, 4.7234°E)
Time: 21:12:54
(UTC+00:00)

Cosmos 1184 Rocket - Pass Details

Date: 14 July 2020
Orbit: 408 x 422 km, 81.2° (Epoch: 14 August)

Event Time Altitude Azimuth Distance (km) Brightness Sun altitude
Exits shadow 00:50:03 75° 38° (NE) 435 2.8 -20.7°
Drops below altitude 10° 00:53:06 10° 12° (NNE) 1,504 6.7 -20.6°
Sets 00:55:09 0° 12° (NNE) 2,376 8.2 -20.5°
